User: anonymous   Login
Location: Vale
(35.4830°N, 81.3830°W)
Time: 09:20:08
(UTC-04:00)
Language:

Oscar 11 - Orbit

View from above orbital plane
View from above orbital plane
View from above satellite
View from above satellite

Ground track
Ground track

The orbit data is extracted from the following two-line orbital elements,

1 14781U 84021B   17265.06339028  .00000086  00000-0  16812-4 0  9994
2 14781  97.6876 307.1577 0007244 236.7207 123.3314 14.82932384804700
Epoch (UTC): 22 September 2017 01:31:16
Eccentricity: 0.0007244
inclination: 97.6876°
perigee height: 615 km
apogee height: 625 km
right ascension of ascending node: 307.1577°
argument of perigee: 236.7207°
revolutions per day: 14.82932384
mean anomaly at epoch: 123.3314°
orbit number at epoch: 80470

The dashed part of the orbit path shows where the satellite is in the earth's shadow,  

DLR